Stations météo

réclame
Mon MeteoGroup
Kleine Brogel, Belgique (6479): Température de l'air & dewpoint: 11.08.2019 15:00:00 - 17.08.2019 15:00:00 (CEST)Kleine Brogel, Belgique (6479): Vitesse du vent & gusts: 11.08.2019 15:00:00 - 17.08.2019 15:00:00 (CEST)Kleine Brogel, Belgique (6479): Direction du vent: 11.08.2019 15:00:00 - 17.08.2019 15:00:00 (CEST)Kleine Brogel, Belgique (6479): reduced air pressure: 11.08.2019 15:00:00 - 17.08.2019 15:00:00 (CEST)Kleine Brogel, Belgique (6479): visibility: 11.08.2019 15:00:00 - 17.08.2019 15:00:00 (CEST)
Date & Time tt [°C] td [°C] ff [km/h] ff [knt] fx [km/h] fx [knt] dd ppp [hPa] vv [km]
17.08.2019 15:00:00 - - - - - - - - -
17.08.2019 14:00:00 - - - - - - - - -
17.08.2019 13:00:00 - - - - - - - - -
17.08.2019 12:00:00 - - - - - - - - -
17.08.2019 11:00:00 - - - - - - - - -
17.08.2019 10:00:00 - - - - - - - - -
17.08.2019 09:00:00 - - - - - - - - -
17.08.2019 08:00:00 - - - - - - - - -
17.08.2019 07:00:00 - - - - - - - - -
17.08.2019 06:00:00 - - - - - - - - -
17.08.2019 05:00:00 - - - - - - - - -
17.08.2019 04:00:00 - - - - - - - - -
17.08.2019 03:00:00 - - - - - - - - -
17.08.2019 02:00:00 - - - - - - - - -
17.08.2019 01:00:00 - - - - - - - - -
17.08.2019 00:00:00 - - - - - - - - -
16.08.2019 23:00:00 - - - - - - - - -
16.08.2019 22:00:00 - - - - - - - - -
16.08.2019 21:00:00 - - - - - - - - -
16.08.2019 20:00:00 - - - - - - - - -
16.08.2019 19:00:00 - - - - - - - - -
16.08.2019 18:00:00 - - - - - - - - -
16.08.2019 17:00:00 - - - - - - - - -
16.08.2019 16:00:00 - - - - - - - - -
16.08.2019 15:00:00 - - - - - - - - -
16.08.2019 14:00:00 - - - - - - - - -
16.08.2019 13:00:00 - - - - - - - - -
16.08.2019 12:00:00 - - - - - - - - -
16.08.2019 11:00:00 - - - - - - - - -
16.08.2019 10:00:00 - - - - - - - - -
16.08.2019 09:00:00 - - - - - - - - -
16.08.2019 08:00:00 - - - - - - - - -
16.08.2019 07:00:00 - - - - - - - - -
16.08.2019 06:00:00 - - - - - - - - -
16.08.2019 05:00:00 - - - - - - - - -
16.08.2019 04:00:00 - - - - - - - - -
16.08.2019 03:00:00 - - - - - - - - -
16.08.2019 02:00:00 - - - - - - - - -
16.08.2019 01:00:00 - - - - - - - - -
16.08.2019 00:00:00 - - - - - - - - -
15.08.2019 23:00:00 - - - - - - - - -
15.08.2019 22:00:00 - - - - - - - - -
15.08.2019 21:00:00 - - - - - - - - -
15.08.2019 20:00:00 - - - - - - - - -
15.08.2019 19:00:00 - - - - - - - - -
15.08.2019 18:00:00 - - - - - - - - -
15.08.2019 17:00:00 - - - - - - - - -
15.08.2019 16:00:00 - - - - - - - - -
15.08.2019 15:00:00 - - - - - - - - -
15.08.2019 14:00:00 - - - - - - - - -
15.08.2019 13:00:00 - - - - - - - - -
15.08.2019 12:00:00 - - - - - - - - -
15.08.2019 11:00:00 - - - - - - - - -
15.08.2019 10:00:00 - - - - - - - - -
15.08.2019 09:00:00 - - - - - - - - -
15.08.2019 08:00:00 - - - - - - - - -
15.08.2019 07:00:00 - - - - - - - - -
15.08.2019 06:00:00 - - - - - - - - -
15.08.2019 05:00:00 - - - - - - - - -
15.08.2019 04:00:00 - - - - - - - - -
15.08.2019 03:00:00 - - - - - - - - -
15.08.2019 02:00:00 - - - - - - - - -
15.08.2019 01:00:00 - - - - - - - - -
15.08.2019 00:00:00 - - - - - - - - -
14.08.2019 23:00:00 - - - - - - - - -
14.08.2019 22:00:00 - - - - - - - - -
14.08.2019 21:00:00 - - - - - - - - -
14.08.2019 20:00:00 - - - - - - - - -
14.08.2019 19:00:00 - - - - - - - - -
14.08.2019 18:00:00 - - - - - - - - -
14.08.2019 17:00:00 - - - - - - - - -
14.08.2019 16:00:00 - - 14 8 36 19 SSW 1016,9 15
14.08.2019 15:00:00 20,0 10,0 14 8 29 16 SSW 1017,4 15
14.08.2019 14:00:00 20,0 10,8 15 8 - - SSW 1017,6 10
14.08.2019 13:00:00 19,0 10,3 14 8 29 16 SW 1018,2 15
14.08.2019 12:00:00 19,2 11,8 14 8 25 14 SSW 1018,5 15
14.08.2019 11:00:00 17,0 12,0 14 8 - - SSW 1019,0 15
14.08.2019 10:00:00 15,5 12,6 14 8 18 10 SW 1019,2 15
14.08.2019 09:00:00 13,0 12,0 7 4 14 8 SSW 1019,3 15
14.08.2019 08:00:00 11,0 10,5 7 4 - - SSW 1019,3 10
14.08.2019 07:00:00 10,0 9,7 7 4 11 6 SSW 1019,2 10
14.08.2019 06:00:00 - - - - - - - - -
14.08.2019 05:00:00 - - - - - - - - -
14.08.2019 04:00:00 - - - - - - - - -
14.08.2019 03:00:00 - - - - - - - - -
14.08.2019 02:00:00 13,0 12,0 4 2 - - SSW 1019,3 15
14.08.2019 01:00:00 - - - - - - - - -
14.08.2019 00:00:00 - - - - - - - - -
13.08.2019 23:00:00 - - - - - - - - -
13.08.2019 22:00:00 - - - - - - - - -
13.08.2019 21:00:00 - - - - - - - - -
13.08.2019 20:00:00 - - - - - - - - -
13.08.2019 19:00:00 - - - - - - - - -
13.08.2019 18:00:00 - - - - - - - - -
13.08.2019 17:00:00 - - - - - - - - -
13.08.2019 16:00:00 13,0 11,5 18 10 54 29 WSW 1019,1 20
13.08.2019 15:00:00 18,0 6,7 22 12 40 21 WSW 1018,0 20
13.08.2019 14:00:00 19,0 6,6 18 10 - - WSW 1017,9 20
13.08.2019 13:00:00 - 8,2 22 12 40 21 SW 1018,2 20
13.08.2019 12:00:00 18,0 8,4 18 10 29 16 WSW 1018,6 20
13.08.2019 11:00:00 17,0 12,0 22 12 - - SW 1018,7 20
13.08.2019 10:00:00 15,5 12,6 18 10 25 14 SW 1018,6 19
13.08.2019 09:00:00 14,0 11,6 18 10 22 12 SW 1018,5 13
13.08.2019 08:00:00 12,0 10,9 15 8 - - SW 1017,7 9
13.08.2019 07:00:00 12,0 11,6 11 6 18 10 SW 1017,5 4,5
13.08.2019 06:00:00 12,0 11,3 11 6 22 12 WSW 1017,2 7
13.08.2019 05:00:00 12,0 11,2 14 8 - - WSW 1016,8 16
13.08.2019 04:00:00 13,0 12,0 18 10 25 14 WSW 1016,3 10
13.08.2019 03:00:00 12,0 11,2 14 8 22 12 SW 1016,2 18
13.08.2019 02:00:00 12,0 11,2 11 6 - - SSW 1016,2 20
13.08.2019 01:00:00 12,0 11,3 14 8 18 10 SW 1016,2 20
13.08.2019 00:00:00 13,0 11,9 7 4 29 16 S 1015,7 20
12.08.2019 23:00:00 14,0 12,5 15 8 - - SSW 1016,1 10
12.08.2019 22:00:00 14,0 12,6 4 2 11 6 N 1015,7 20
12.08.2019 21:00:00 14,0 12,3 4 2 11 6 N 1015,2 20
12.08.2019 20:00:00 16,0 12,6 4 2 - - N 1015,0 20
12.08.2019 19:00:00 16,0 11,4 4 2 14 8 N 1014,7 20
12.08.2019 18:00:00 16,0 13,2 4 2 14 8 N 1014,7 20
12.08.2019 17:00:00 14,0 12,8 11 6 - - W 1015,2 18
12.08.2019 16:00:00 22,0 9,2 14 8 29 16 SW 1013,5 20
12.08.2019 15:00:00 23,0 10,0 14 8 25 14 SW 1013,6 20
12.08.2019 14:00:00 22,7 10,7 14 8 - - SW 1014,2 20
12.08.2019 13:00:00 20,0 10,4 18 10 36 19 SW 1015,2 20
12.08.2019 12:00:00 21,0 11,0 18 10 29 16 SW 1015,5 20
12.08.2019 11:00:00 20,0 11,9 18 10 - - SW 1015,7 20
12.08.2019 10:00:00 17,7 12,0 14 8 22 12 SW 1016,0 20
12.08.2019 09:00:00 16,0 11,7 11 6 22 12 SSW 1016,1 20
12.08.2019 08:00:00 14,2 11,1 7 4 - - S 1015,7 20
12.08.2019 07:00:00 13,0 10,8 8 4 11 6 SSW 1015,7 10
12.08.2019 06:00:00 12,0 10,2 4 2 11 6 N 1015,7 20
12.08.2019 05:00:00 12,0 9,9 7 4 - - S 1015,5 20
12.08.2019 04:00:00 13,0 10,4 7 4 11 6 SSW 1015,2 20
12.08.2019 03:00:00 13,0 10,5 7 4 14 8 SSW 1015,3 20
12.08.2019 02:00:00 14,0 10,2 11 6 - - SSW 1015,5 20
12.08.2019 01:00:00 15,0 10,6 7 4 14 8 SSW 1015,7 20
12.08.2019 00:00:00 15,0 10,2 7 4 11 6 SSW 1015,7 20
11.08.2019 23:00:00 16,0 9,8 7 4 - - SSW 1015,6 20
11.08.2019 22:00:00 18,0 10,1 11 6 18 10 SW 1015,2 20
11.08.2019 21:00:00 19,0 9,7 7 4 18 10 SSW 1014,8 20
11.08.2019 20:00:00 19,0 8,7 14 8 - - SW 1014,5 20
11.08.2019 19:00:00 20,0 9,9 14 8 29 16 SSW 1013,8 20
11.08.2019 18:00:00 21,0 8,6 18 10 29 16 SSW 1013,8 20
11.08.2019 17:00:00 21,0 8,6 22 12 - - SW 1014,1 20
11.08.2019 16:00:00 20,7 8,7 22 12 36 19 SW 1014,2 20
11.08.2019 15:00:00 21,0 10,7 18 10 32 18 SW 1014,7 20

tt = Température de l'air
td = dewpoint
ff = Vitesse du vent
fx = gusts
dd = Direction du vent
ppp = reduced air pressure
vv = visibility

stations d'obs. à proximité